| time (UTC) | temp C | wind direction | speed KPH | gust KPH | rain 1hr cm | rain 24hr cm | rain mn cm | humidity % | barometer mb |
| 20260507161551 | 32 | 108 | 9.7 | 24.1 | 0.00 | 0.00 | 0.00 | 71 | 1017.9 |
| 20260507161034 | 32 | 129 | 9.7 | 20.9 | 0.00 | 0.00 | 0.00 | 72 | 1018.0 |
| 20260507160534 | 32 | 134 | 6.4 | 22.5 | 0.00 | 0.00 | 0.00 | 71 | 1018.0 |
| 20260507160054 | 31 | 147 | 11.3 | 22.5 | 0.00 | 0.00 | 0.00 | 72 | 1018.1 |
| 20260507155534 | 31 | 121 | 9.7 | 20.9 | 0.00 | 0.00 | 0.00 | 72 | 1018.1 |
| 20260507155034 | 31 | 148 | 6.4 | 22.5 | 0.00 | 0.00 | 0.00 | 73 | 1018.1 |
| 20260507154556 | 31 | 120 | 9.7 | 22.5 | 0.00 | 0.00 | 0.00 | 73 | 1018.2 |
| 20260507154034 | 31 | 157 | 9.7 | 24.1 | 0.00 | 0.00 | 0.00 | 72 | 1018.2 |
| 20260507153538 | 31 | 115 | 9.7 | 24.1 | 0.00 | 0.00 | 0.00 | 73 | 1018.2 |
| 20260507153053 | 31 | 109 | 6.4 | 27.4 | 0.00 | 0.00 | 0.00 | 73 | 1018.2 |
| 20260507152540 | 31 | 178 | 12.9 | 27.4 | 0.00 | 0.00 | 0.00 | 73 | 1018.3 |
| 20260507152035 | 31 | 192 | 14.5 | 25.7 | 0.00 | 0.00 | 0.00 | 73 | 1018.3 |
| 20260507151549 | 31 | 132 | 11.3 | 25.7 | 0.00 | 0.00 | 0.00 | 74 | 1018.3 |
| 20260507151034 | 31 | 145 | 11.3 | 24.1 | 0.00 | 0.00 | 0.00 | 74 | 1018.2 |
| 20260507150534 | 31 | 161 | 11.3 | 27.4 | 0.00 | 0.00 | 0.00 | 74 | 1018.3 |
| 20260507150048 | 31 | 192 | 14.5 | 27.4 | 0.00 | 0.00 | 0.00 | 73 | 1018.3 |
| 20260507145534 | 31 | 158 | 16.1 | 27.4 | 0.00 | 0.00 | 0.00 | 73 | 1018.2 |
| 20260507145038 | 31 | 133 | 12.9 | 30.6 | 0.00 | 0.00 | 0.00 | 73 | 1018.2 |
| 20260507144551 | 31 | 101 | 16.1 | 30.6 | 0.00 | 0.00 | 0.00 | 73 | 1018.3 |
| 20260507144034 | 31 | 173 | 11.3 | 27.4 | 0.00 | 0.00 | 0.00 | 73 | 1018.3 |
| 20260507143535 | 30 | 97 | 12.9 | 27.4 | 0.00 | 0.00 | 0.00 | 74 | 1018.4 |
| 20260507143050 | 30 | 175 | 16.1 | 27.4 | 0.00 | 0.00 | 0.00 | 72 | 1018.4 |
| 20260507142535 | 30 | 134 | 12.9 | 25.7 | 0.00 | 0.00 | 0.00 | 74 | 1018.4 |
| 20260507142036 | 30 | 150 | 14.5 | 25.7 | 0.00 | 0.00 | 0.00 | 73 | 1018.4 |
| 20260507141546 | 30 | 125 | 11.3 | 25.7 | 0.00 | 0.00 | 0.00 | 73 | 1018.4 |
| 20260507141036 | 30 | 140 | 11.3 | 25.7 | 0.00 | 0.00 | 0.00 | 75 | 1018.3 |
| 20260507140538 | 30 | 126 | 16.1 | 24.1 | 0.00 | 0.00 | 0.00 | 75 | 1018.3 |
| 20260507140053 | 30 | 130 | 12.9 | 27.4 | 0.00 | 0.00 | 0.00 | 74 | 1018.3 |
| 20260507135536 | 30 | 115 | 16.1 | 27.4 | 0.00 | 0.00 | 0.00 | 74 | 1018.4 |
| 20260507135036 | 30 | 115 | 16.1 | 25.7 | 0.00 | 0.00 | 0.00 | 74 | 1018.3 |
| 20260507134551 | 30 | 123 | 11.3 | 27.4 | 0.00 | 0.00 | 0.00 | 74 | 1018.3 |
| 20260507134035 | 30 | 104 | 16.1 | 27.4 | 0.00 | 0.00 | 0.00 | 73 | 1018.3 |
| 20260507133536 | 30 | 136 | 17.7 | 27.4 | 0.00 | 0.00 | 0.00 | 73 | 1018.2 |
| 20260507133050 | 30 | 128 | 14.5 | 25.7 | 0.00 | 0.00 | 0.00 | 75 | 1018.2 |
| 20260507132535 | 30 | 130 | 11.3 | 24.1 | 0.00 | 0.00 | 0.00 | 75 | 1018.1 |
| 20260507132035 | 29 | 133 | 11.3 | 24.1 | 0.00 | 0.00 | 0.00 | 76 | 1018.1 |
| 20260507131548 | 29 | 101 | 16.1 | 24.1 | 0.00 | 0.00 | 0.00 | 75 | 1018.1 |
| 20260507131035 | 29 | 123 | 16.1 | 22.5 | 0.00 | 0.00 | 0.00 | 75 | 1018.2 |
| 20260507130535 | 29 | 113 | 16.1 | 24.1 | 0.00 | 0.00 | 0.00 | 74 | 1018.1 |
| 20260507125536 | 28 | 141 | 14.5 | 24.1 | 0.00 | 0.00 | 0.00 | 76 | 1018.0 |
| 20260507125036 | 28 | 98 | 11.3 | 24.1 | 0.00 | 0.00 | 0.00 | 76 | 1017.9 |
| 20260507124600 | 28 | 126 | 14.5 | 24.1 | 0.00 | 0.00 | 0.00 | 76 | 1017.9 |
| 20260507124036 | 28 | 101 | 8.0 | 22.5 | 0.00 | 0.00 | 0.00 | 76 | 1017.9 |
| 20260507123536 | 28 | 105 | 12.9 | 24.1 | 0.00 | 0.00 | 0.00 | 77 | 1017.8 |
| 20260507123043 | 28 | 140 | 8.0 | 24.1 | 0.00 | 0.00 | 0.00 | 77 | 1017.8 |
| 20260507122536 | 28 | 129 | 11.3 | 19.3 | 0.00 | 0.00 | 0.00 | 77 | 1017.7 |
| 20260507122036 | 28 | 96 | 9.7 | 22.5 | 0.00 | 0.00 | 0.00 | 77 | 1017.7 |
| 20260507121543 | 28 | 78 | 11.3 | 22.5 | 0.00 | 0.00 | 0.00 | 78 | 1017.6 |
| 20260507121036 | 28 | 150 | 9.7 | 19.3 | 0.00 | 0.00 | 0.00 | 78 | 1017.4 |
| 20260507120535 | 27 | 114 | 4.8 | 14.5 | 0.00 | 0.00 | 0.00 | 78 | 1017.3 |
| 20260507120043 | 27 | 90 | 6.4 | 16.1 | 0.00 | 0.00 | 0.00 | 78 | 1017.4 |
| 20260507115536 | 27 | 60 | 9.7 | 19.3 | 0.00 | 0.00 | 0.00 | 78 | 1017.4 |
| 20260507115035 | 27 | 92 | 8.0 | 19.3 | 0.00 | 0.00 | 0.00 | 79 | 1017.3 |
| 20260507114605 | 27 | 101 | 8.0 | 17.7 | 0.00 | 0.00 | 0.00 | 79 | 1017.2 |
| 20260507114036 | 26 | 89 | 4.8 | 14.5 | 0.00 | 0.00 | 0.00 | 80 | 1017.2 |
| 20260507113536 | 26 | 49 | 8.0 | 16.1 | 0.00 | 0.00 | 0.00 | 80 | 1017.2 |
| 20260507113047 | 26 | 94 | 6.4 | 16.1 | 0.00 | 0.00 | 0.00 | 81 | 1017.3 |
| 20260507112535 | 26 | 117 | 8.0 | 14.5 | 0.00 | 0.00 | 0.00 | 82 | 1017.2 |
| 20260507112038 | 26 | 96 | 8.0 | 14.5 | 0.00 | 0.00 | 0.00 | 83 | 1017.2 |
| 20260507111545 | 25 | 78 | 6.4 | 12.9 | 0.00 | 0.00 | 0.00 | 83 | 1017.3 |
| 20260507111035 | 25 | 80 | 6.4 | 14.5 | 0.00 | 0.00 | 0.00 | 83 | 1017.3 |
| 20260507110534 | 25 | 61 | 6.4 | 14.5 | 0.00 | 0.00 | 0.00 | 83 | 1017.3 |
| 20260507110047 | 25 | 47 | 8.0 | 14.5 | 0.00 | 0.00 | 0.00 | 84 | 1017.3 |
| 20260507105533 | 25 | 34 | 6.4 | 14.5 | 0.00 | 0.00 | 0.00 | 83 | 1017.3 |
| 20260507105033 | 25 | 24 | 6.4 | 14.5 | 0.00 | 0.00 | 0.00 | 83 | 1017.2 |
| 20260507104550 | 25 | 36 | 6.4 | 14.5 | 0.00 | 0.00 | 0.00 | 82 | 1017.1 |
| 20260507104034 | 25 | 51 | 6.4 | 17.7 | 0.00 | 0.00 | 0.00 | 82 | 1017.1 |
| 20260507103536 | 25 | 44 | 9.7 | 17.7 | 0.00 | 0.00 | 0.00 | 82 | 1017.0 |
| 20260507103041 | 26 | 53 | 6.4 | 12.9 | 0.00 | 0.00 | 0.00 | 82 | 1017.0 |
| 20260507102534 | 26 | 76 | 4.8 | 14.5 | 0.00 | 0.00 | 0.00 | 82 | 1016.9 |
| 20260507102035 | 26 | 51 | 6.4 | 16.1 | 0.00 | 0.00 | 0.00 | 81 | 1016.9 |
| 20260507101543 | 26 | 66 | 8.0 | 16.1 | 0.00 | 0.00 | 0.00 | 82 | 1016.8 |
| 20260507101035 | 26 | 86 | 8.0 | 17.7 | 0.00 | 0.00 | 0.00 | 82 | 1016.6 |
| 20260507100535 | 26 | 99 | 6.4 | 17.7 | 0.00 | 0.00 | 0.00 | 82 | 1016.6 |
| 20260507100048 | 26 | 80 | 4.8 | 19.3 | 0.00 | 0.00 | 0.00 | 82 | 1016.4 |
| 20260507095534 | 25 | 119 | 8.0 | 19.3 | 0.00 | 0.00 | 0.00 | 82 | 1016.5 |
| 20260507095033 | 25 | 63 | 8.0 | 17.7 | 0.00 | 0.00 | 0.00 | 82 | 1016.4 |
| 20260507094545 | 25 | 86 | 9.7 | 19.3 | 0.00 | 0.00 | 0.00 | 82 | 1016.4 |
| 20260507094036 | 25 | 90 | 8.0 | 19.3 | 0.00 | 0.00 | 0.00 | 82 | 1016.3 |
| 20260507093534 | 25 | 51 | 8.0 | 17.7 | 0.00 | 0.00 | 0.00 | 83 | 1016.4 |
| 20260507093044 | 25 | 50 | 9.7 | 17.7 | 0.00 | 0.00 | 0.00 | 83 | 1016.5 |
| 20260507092534 | 25 | 58 | 8.0 | 17.7 | 0.00 | 0.00 | 0.00 | 83 | 1016.5 |
| 20260507092033 | 25 | 68 | 4.8 | 14.5 | 0.00 | 0.00 | 0.00 | 83 | 1016.4 |
| 20260507091544 | 25 | 78 | 6.4 | 14.5 | 0.00 | 0.00 | 0.00 | 83 | 1016.6 |
| 20260507091034 | 25 | 56 | 6.4 | 11.3 | 0.00 | 0.00 | 0.00 | 83 | 1016.6 |
| 20260507090536 | 25 | 84 | 4.8 | 14.5 | 0.00 | 0.00 | 0.00 | 83 | 1016.6 |
| 20260507090047 | 25 | 53 | 6.4 | 14.5 | 0.00 | 0.00 | 0.00 | 83 | 1016.5 |
| 20260507085534 | 25 | 34 | 8.0 | 14.5 | 0.00 | 0.00 | 0.00 | 83 | 1016.5 |
| 20260507085036 | 25 | 59 | 6.4 | 16.1 | 0.00 | 0.00 | 0.00 | 82 | 1016.5 |
| 20260507084550 | 25 | 17 | 8.0 | 17.7 | 0.00 | 0.00 | 0.00 | 83 | 1016.6 |
| 20260507084036 | 24 | 35 | 8.0 | 17.7 | 0.00 | 0.00 | 0.00 | 83 | 1016.6 |
| 20260507083535 | 24 | 51 | 6.4 | 16.1 | 0.00 | 0.00 | 0.00 | 83 | 1016.5 |
| 20260507083047 | 24 | 32 | 6.4 | 12.9 | 0.00 | 0.00 | 0.00 | 83 | 1016.6 |
| 20260507082538 | 24 | 46 | 6.4 | 11.3 | 0.00 | 0.00 | 0.00 | 83 | 1016.6 |
| 20260507082039 | 24 | 36 | 6.4 | 9.7 | 0.00 | 0.00 | 0.00 | 84 | 1016.6 |
| 20260507081544 | 24 | 46 | 6.4 | 11.3 | 0.00 | 0.00 | 0.00 | 84 | 1016.6 |
| 20260507081035 | 24 | 41 | 6.4 | 11.3 | 0.00 | 0.00 | 0.00 | 84 | 1016.5 |
| 20260507080536 | 24 | 24 | 4.8 | 14.5 | 0.00 | 0.00 | 0.00 | 84 | 1016.4 |
| 20260507080044 | 24 | 47 | 6.4 | 14.5 | 0.00 | 0.00 | 0.00 | 84 | 1016.4 |
| 20260507075535 | 24 | 44 | 6.4 | 14.5 | 0.00 | 0.00 | 0.00 | 84 | 1016.5 |
| 20260507075038 | 24 | 49 | 4.8 | 16.1 | 0.00 | 0.00 | 0.00 | 84 | 1016.5 |
| 20260507074605 | 25 | 50 | 6.4 | 16.1 | 0.00 | 0.00 | 0.00 | 84 | 1016.3 |
| 20260507074035 | 25 | 34 | 8.0 | 14.5 | 0.00 | 0.00 | 0.00 | 84 | 1016.5 |
| 20260507073538 | 25 | 61 | 8.0 | 14.5 | 0.00 | 0.00 | 0.00 | 84 | 1016.5 |
| 20260507073048 | 25 | 42 | 6.4 | 12.9 | 0.00 | 0.00 | 0.00 | 84 | 1016.6 |
| 20260507072536 | 25 | 40 | 8.0 | 14.5 | 0.00 | 0.00 | 0.00 | 84 | 1016.5 |
| 20260507072036 | 25 | 53 | 6.4 | 14.5 | 0.00 | 0.00 | 0.00 | 84 | 1016.5 |
| 20260507071551 | 25 | 37 | 8.0 | 14.5 | 0.00 | 0.00 | 0.00 | 84 | 1016.6 |
| 20260507071035 | 25 | 55 | 6.4 | 14.5 | 0.00 | 0.00 | 0.00 | 84 | 1016.7 |
| 20260507070535 | 25 | 57 | 8.0 | 14.5 | 0.00 | 0.00 | 0.00 | 84 | 1016.7 |
| 20260507070104 | 25 | 35 | 6.4 | 17.7 | 0.00 | 0.00 | 0.00 | 83 | 1016.7 |
| 20260507065535 | 25 | 53 | 8.0 | 17.7 | 0.00 | 0.00 | 0.00 | 83 | 1016.8 |
| 20260507065036 | 25 | 48 | 8.0 | 16.1 | 0.00 | 0.00 | 0.00 | 83 | 1016.8 |
| 20260507064544 | 25 | 65 | 8.0 | 16.1 | 0.00 | 0.00 | 0.00 | 83 | 1017.0 |
| 20260507064035 | 25 | 36 | 6.4 | 16.1 | 0.00 | 0.00 | 0.00 | 82 | 1017.0 |
| 20260507063536 | 25 | 50 | 8.0 | 16.1 | 0.00 | 0.00 | 0.00 | 82 | 1017.1 |
| 20260507063056 | 25 | 54 | 8.0 | 16.1 | 0.00 | 0.00 | 0.00 | 81 | 1017.2 |
| 20260507062535 | 25 | 70 | 8.0 | 16.1 | 0.00 | 0.00 | 0.00 | 81 | 1017.2 |
| 20260507062036 | 25 | 56 | 6.4 | 16.1 | 0.00 | 0.00 | 0.00 | 81 | 1017.3 |
| 20260507061548 | 25 | 63 | 8.0 | 16.1 | 0.00 | 0.00 | 0.00 | 81 | 1017.3 |
| 20260507061035 | 25 | 102 | 6.4 | 16.1 | 0.00 | 0.00 | 0.00 | 80 | 1017.4 |
| 20260507060535 | 25 | 68 | 6.4 | 14.5 | 0.00 | 0.00 | 0.00 | 81 | 1017.5 |
| 20260507060046 | 25 | 72 | 6.4 | 14.5 | 0.00 | 0.00 | 0.00 | 81 | 1017.6 |
| 20260507055536 | 25 | 67 | 4.8 | 11.3 | 0.00 | 0.00 | 0.00 | 81 | 1017.5 |
| 20260507055036 | 25 | 62 | 6.4 | 16.1 | 0.00 | 0.00 | 0.00 | 81 | 1017.6 |
| 20260507054548 | 25 | 59 | 4.8 | 16.1 | 0.00 | 0.00 | 0.00 | 80 | 1017.6 |
| 20260507054035 | 25 | 71 | 4.8 | 11.3 | 0.00 | 0.00 | 0.00 | 81 | 1017.8 |
| 20260507053536 | 25 | 74 | 4.8 | 12.9 | 0.00 | 0.00 | 0.00 | 81 | 1017.8 |
| 20260507053046 | 25 | 76 | 6.4 | 12.9 | 0.00 | 0.00 | 0.00 | 81 | 1017.9 |
| 20260507052535 | 25 | 82 | 4.8 | 11.3 | 0.00 | 0.00 | 0.00 | 81 | 1017.9 |
| 20260507052035 | 25 | 80 | 3.2 | 12.9 | 0.00 | 0.00 | 0.00 | 81 | 1018.0 |
| 20260507051547 | 25 | 72 | 4.8 | 12.9 | 0.00 | 0.00 | 0.00 | 81 | 1018.0 |
| 20260507051034 | 25 | 84 | 3.2 | 14.5 | 0.00 | 0.00 | 0.00 | 81 | 1018.1 |
| 20260507050538 | 25 | 55 | 4.8 | 14.5 | 0.00 | 0.00 | 0.00 | 82 | 1018.2 |
| 20260507050044 | 25 | 66 | 4.8 | 11.3 | 0.00 | 0.00 | 0.00 | 82 | 1018.1 |
| 20260507045536 | 25 | 51 | 3.2 | 12.9 | 0.00 | 0.00 | 0.00 | 82 | 1018.3 |
| 20260507045035 | 25 | 74 | 4.8 | 14.5 | 0.00 | 0.00 | 0.00 | 82 | 1018.3 |
| 20260507044544 | 25 | 56 | 4.8 | 14.5 | 0.00 | 0.00 | 0.00 | 82 | 1018.3 |
| 20260507044035 | 25 | 38 | 8.0 | 16.1 | 0.00 | 0.00 | 0.00 | 83 | 1018.4 |
| 20260507043535 | 25 | 55 | 9.7 | 16.1 | 0.00 | 0.00 | 0.00 | 83 | 1018.5 |
| 20260507043048 | 25 | 55 | 8.0 | 14.5 | 0.00 | 0.00 | 0.00 | 83 | 1018.6 |
| 20260507042535 | 25 | 61 | 6.4 | 14.5 | 0.00 | 0.00 | 0.00 | 84 | 1018.6 |
| 20260507042035 | 25 | 42 | 4.8 | 9.7 | 0.00 | 0.00 | 0.00 | 84 | 1018.7 |
| 20260507041546 | 25 | 38 | 4.8 | 8.0 | 0.00 | 0.00 | 0.00 | 84 | 1018.8 |
| 20260507041035 | 25 | 40 | 4.8 | 11.3 | 0.00 | 0.00 | 0.00 | 84 | 1018.7 |
| 20260507040537 | 25 | 25 | 4.8 | 12.9 | 0.00 | 0.00 | 0.00 | 84 | 1018.8 |
| 20260507040047 | 25 | 24 | 6.4 | 14.5 | 0.00 | 0.00 | 0.00 | 84 | 1018.7 |
| 20260507035535 | 25 | 40 | 6.4 | 16.1 | 0.00 | 0.00 | 0.00 | 84 | 1018.8 |
| 20260507035035 | 25 | 43 | 8.0 | 16.1 | 0.00 | 0.00 | 0.00 | 85 | 1018.8 |
| 20260507034545 | 25 | 55 | 4.8 | 11.3 | 0.00 | 0.00 | 0.00 | 85 | 1018.9 |
| 20260507034036 | 25 | 49 | 4.8 | 11.3 | 0.00 | 0.00 | 0.00 | 85 | 1018.9 |
| 20260507033535 | 25 | 31 | 4.8 | 14.5 | 0.00 | 0.00 | 0.00 | 85 | 1019.1 |
| 20260507033045 | 25 | 39 | 6.4 | 14.5 | 0.00 | 0.00 | 0.00 | 85 | 1019.1 |
| 20260507032539 | 25 | 28 | 4.8 | 9.7 | 0.00 | 0.00 | 0.00 | 85 | 1019.2 |
| 20260507032035 | 25 | 42 | 4.8 | 11.3 | 0.00 | 0.00 | 0.00 | 85 | 1019.2 |
| 20260507031542 | 25 | 24 | 4.8 | 11.3 | 0.00 | 0.00 | 0.00 | 85 | 1019.2 |
| 20260507031036 | 25 | 21 | 4.8 | 9.7 | 0.00 | 0.00 | 0.00 | 85 | 1019.2 |
| 20260507030536 | 25 | 24 | 4.8 | 11.3 | 0.00 | 0.00 | 0.00 | 85 | 1019.2 |
| 20260507030049 | 25 | 25 | 6.4 | 11.3 | 0.00 | 0.00 | 0.00 | 85 | 1019.2 |
| 20260507025535 | 25 | 42 | 4.8 | 9.7 | 0.00 | 0.00 | 0.00 | 85 | 1019.2 |
| 20260507025035 | 25 | 44 | 6.4 | 9.7 | 0.00 | 0.00 | 0.00 | 85 | 1019.2 |
| 20260507024546 | 26 | 41 | 4.8 | 8.0 | 0.00 | 0.00 | 0.00 | 85 | 1019.2 |
| 20260507024036 | 26 | 59 | 4.8 | 11.3 | 0.00 | 0.00 | 0.00 | 85 | 1019.3 |
| 20260507023535 | 26 | 35 | 4.8 | 11.3 | 0.00 | 0.00 | 0.00 | 85 | 1019.2 |
| 20260507023047 | 26 | 36 | 4.8 | 9.7 | 0.00 | 0.00 | 0.00 | 84 | 1019.2 |
| 20260507022535 | 26 | 33 | 4.8 | 9.7 | 0.00 | 0.00 | 0.00 | 84 | 1019.0 |
| 20260507022034 | 26 | 30 | 4.8 | 8.0 | 0.00 | 0.00 | 0.00 | 84 | 1019.0 |
| 20260507021545 | 26 | 35 | 4.8 | 8.0 | 0.00 | 0.00 | 0.00 | 84 | 1019.1 |
| 20260507021036 | 26 | 38 | 4.8 | 11.3 | 0.00 | 0.00 | 0.00 | 84 | 1018.9 |
| 20260507020534 | 26 | 39 | 4.8 | 11.3 | 0.00 | 0.00 | 0.00 | 85 | 1018.9 |
| 20260507020044 | 26 | 38 | 3.2 | 8.0 | 0.00 | 0.00 | 0.00 | 85 | 1018.9 |
| 20260507015534 | 26 | 28 | 3.2 | 6.4 | 0.00 | 0.00 | 0.00 | 84 | 1018.9 |
| 20260507015033 | 26 | 40 | 3.2 | 8.0 | 0.00 | 0.00 | 0.00 | 84 | 1018.9 |
| 20260507014553 | 26 | 29 | 3.2 | 8.0 | 0.00 | 0.00 | 0.00 | 84 | 1018.8 |
| 20260507014034 | 26 | 40 | 4.8 | 8.0 | 0.00 | 0.00 | 0.00 | 84 | 1018.8 |
| 20260507013535 | 26 | 36 | 4.8 | 9.7 | 0.00 | 0.00 | 0.00 | 84 | 1018.7 |
| 20260507013101 | 26 | 40 | 4.8 | 9.7 | 0.00 | 0.00 | 0.00 | 84 | 1018.7 |
| 20260507012535 | 26 | 40 | 4.8 | 9.7 | 0.00 | 0.00 | 0.00 | 83 | 1018.7 |
| 20260507012112 | 26 | 40 | 4.8 | 9.7 | 0.00 | 0.00 | 0.00 | 83 | 1018.7 |
| 20260507011546 | 26 | 42 | 4.8 | 9.7 | 0.00 | 0.00 | 0.00 | 83 | 1018.6 |
| 20260507011034 | 26 | 53 | 6.4 | 9.7 | 0.00 | 0.00 | 0.00 | 83 | 1018.5 |
| 20260507010534 | 26 | 57 | 4.8 | 8.0 | 0.00 | 0.00 | 0.00 | 83 | 1018.4 |
| 20260507010054 | 26 | 51 | 3.2 | 8.0 | 0.00 | 0.00 | 0.00 | 83 | 1018.6 |
| 20260507005535 | 26 | 29 | 3.2 | 8.0 | 0.00 | 0.00 | 0.00 | 83 | 1018.5 |
| 20260507005033 | 26 | 33 | 3.2 | 8.0 | 0.00 | 0.00 | 0.00 | 82 | 1018.6 |
| 20260507004546 | 27 | 26 | 3.2 | 11.3 | 0.00 | 0.00 | 0.00 | 82 | 1018.4 |
| 20260507004035 | 27 | 50 | 4.8 | 12.9 | 0.00 | 0.00 | 0.00 | 81 | 1018.3 |
| 20260507003537 | 27 | 38 | 8.0 | 12.9 | 0.00 | 0.00 | 0.00 | 81 | 1018.2 |
| 20260507003043 | 27 | 57 | 6.4 | 9.7 | 0.00 | 0.00 | 0.00 | 80 | 1018.3 |
| 20260507002534 | 27 | 45 | 3.2 | 8.0 | 0.00 | 0.00 | 0.00 | 80 | 1018.3 |
| 20260507002034 | 28 | 74 | 3.2 | 11.3 | 0.00 | 0.00 | 0.00 | 79 | 1018.2 |
| 20260507001552 | 28 | 78 | 3.2 | 16.1 | 0.00 | 0.00 | 0.00 | 79 | 1018.2 |
| 20260507001033 | 28 | 64 | 6.4 | 16.1 | 0.00 | 0.00 | 0.00 | 79 | 1018.1 |
| 20260507000536 | 28 | 76 | 4.8 | 14.5 | 0.00 | 0.00 | 0.00 | 79 | 1018.1 |
| 20260507000042 | 28 | 84 | 6.4 | 16.1 | 0.00 | 0.00 | 0.00 | 79 | 1018.0 |
| 20260506235534 | 28 | 89 | 8.0 | 16.1 | 0.00 | 0.00 | 0.00 | 79 | 1017.9 |
| 20260506235035 | 28 | 114 | 4.8 | 16.1 | 0.00 | 0.00 | 0.00 | 79 | 1017.8 |
| 20260506234548 | 28 | 103 | 6.4 | 17.7 | 0.00 | 0.00 | 0.00 | 79 | 1017.9 |
| 20260506234034 | 28 | 86 | 8.0 | 17.7 | 0.00 | 0.00 | 0.00 | 79 | 1017.8 |
| 20260506233535 | 28 | 126 | 6.4 | 16.1 | 0.00 | 0.00 | 0.00 | 78 | 1017.6 |
| 20260506233100 | 28 | 113 | 6.4 | 17.7 | 0.00 | 0.00 | 0.00 | 78 | 1017.6 |
| 20260506232538 | 28 | 94 | 6.4 | 17.7 | 0.00 | 0.00 | 0.00 | 78 | 1017.6 |
| 20260506232034 | 28 | 112 | 8.0 | 17.7 | 0.00 | 0.00 | 0.00 | 78 | 1017.5 |
| 20260506231544 | 28 | 123 | 4.8 | 20.9 | 0.00 | 0.00 | 0.00 | 78 | 1017.4 |
| 20260506231035 | 28 | 123 | 9.7 | 20.9 | 0.00 | 0.00 | 0.00 | 77 | 1017.3 |
| 20260506230533 | 28 | 133 | 9.7 | 17.7 | 0.00 | 0.00 | 0.00 | 78 | 1017.4 |
| 20260506230048 | 28 | 76 | 6.4 | 19.3 | 0.00 | 0.00 | 0.00 | 78 | 1017.3 |
| 20260506225535 | 28 | 115 | 9.7 | 20.9 | 0.00 | 0.00 | 0.00 | 77 | 1017.3 |
| 20260506225035 | 29 | 136 | 9.7 | 20.9 | 0.00 | 0.00 | 0.00 | 77 | 1017.2 |
| 20260506224543 | 29 | 126 | 8.0 | 20.9 | 0.00 | 0.00 | 0.00 | 77 | 1017.2 |
| 20260506224034 | 29 | 108 | 8.0 | 22.5 | 0.00 | 0.00 | 0.00 | 77 | 1017.1 |
| 20260506223536 | 29 | 138 | 11.3 | 27.4 | 0.00 | 0.00 | 0.00 | 76 | 1017.1 |
| 20260506223049 | 30 | 97 | 12.9 | 27.4 | 0.00 | 0.00 | 0.00 | 76 | 1016.9 |
| 20260506222535 | 30 | 105 | 9.7 | 22.5 | 0.00 | 0.00 | 0.00 | 76 | 1016.8 |
| 20260506222035 | 30 | 112 | 14.5 | 24.1 | 0.00 | 0.00 | 0.00 | 75 | 1016.8 |
| 20260506221555 | 30 | 132 | 12.9 | 24.1 | 0.00 | 0.00 | 0.00 | 74 | 1016.7 |
| 20260506221034 | 30 | 129 | 12.9 | 25.7 | 0.00 | 0.00 | 0.00 | 74 | 1016.7 |
| 20260506220536 | 31 | 145 | 14.5 | 25.7 | 0.00 | 0.00 | 0.00 | 73 | 1016.7 |
| 20260506220046 | 31 | 134 | 9.7 | 22.5 | 0.00 | 0.00 | 0.00 | 74 | 1016.7 |
| 20260506215536 | 31 | 103 | 14.5 | 24.1 | 0.00 | 0.00 | 0.00 | 73 | 1016.7 |
| 20260506215034 | 31 | 107 | 12.9 | 24.1 | 0.00 | 0.00 | 0.00 | 73 | 1016.6 |
| 20260506214545 | 31 | 139 | 16.1 | 24.1 | 0.00 | 0.00 | 0.00 | 71 | 1016.6 |
| 20260506214033 | 31 | 114 | 12.9 | 24.1 | 0.00 | 0.00 | 0.00 | 72 | 1016.7 |
| 20260506213534 | 31 | 139 | 14.5 | 25.7 | 0.00 | 0.00 | 0.00 | 72 | 1016.7 |
| 20260506213044 | 31 | 126 | 17.7 | 25.7 | 0.00 | 0.00 | 0.00 | 71 | 1016.8 |
| 20260506212534 | 31 | 128 | 14.5 | 25.7 | 0.00 | 0.00 | 0.00 | 71 | 1016.7 |
| 20260506212037 | 31 | 96 | 11.3 | 29.0 | 0.00 | 0.00 | 0.00 | 71 | 1016.7 |
| 20260506211554 | 31 | 155 | 16.1 | 29.0 | 0.00 | 0.00 | 0.00 | 71 | 1016.6 |
| 20260506211034 | 31 | 104 | 14.5 | 27.4 | 0.00 | 0.00 | 0.00 | 70 | 1016.6 |
| 20260506210534 | 32 | 123 | 12.9 | 25.7 | 0.00 | 0.00 | 0.00 | 70 | 1016.5 |
| 20260506210048 | 32 | 127 | 14.5 | 27.4 | 0.00 | 0.00 | 0.00 | 70 | 1016.6 |
| 20260506205537 | 32 | 120 | 11.3 | 27.4 | 0.00 | 0.00 | 0.00 | 69 | 1016.6 |
| 20260506205034 | 32 | 140 | 11.3 | 29.0 | 0.00 | 0.00 | 0.00 | 70 | 1016.5 |
| 20260506204548 | 32 | 109 | 16.1 | 29.0 | 0.00 | 0.00 | 0.00 | 69 | 1016.5 |
| 20260506204034 | 32 | 133 | 12.9 | 29.0 | 0.00 | 0.00 | 0.00 | 69 | 1016.5 |
| 20260506203534 | 32 | 132 | 17.7 | 29.0 | 0.00 | 0.00 | 0.00 | 69 | 1016.5 |
| 20260506203046 | 32 | 138 | 14.5 | 29.0 | 0.00 | 0.00 | 0.00 | 69 | 1016.5 |
| 20260506202534 | 32 | 147 | 12.9 | 27.4 | 0.00 | 0.00 | 0.00 | 69 | 1016.5 |
| 20260506202034 | 32 | 130 | 12.9 | 27.4 | 0.00 | 0.00 | 0.00 | 69 | 1016.5 |
| 20260506201546 | 32 | 144 | 9.7 | 27.4 | 0.00 | 0.00 | 0.00 | 69 | 1016.4 |
| 20260506201035 | 32 | 164 | 16.1 | 27.4 | 0.00 | 0.00 | 0.00 | 70 | 1016.5 |
| 20260506200534 | 32 | 111 | 12.9 | 24.1 | 0.00 | 0.00 | 0.00 | 70 | 1016.5 |
| 20260506200047 | 32 | 162 | 14.5 | 24.1 | 0.00 | 0.00 | 0.00 | 69 | 1016.5 |
| 20260506195535 | 32 | 119 | 12.9 | 27.4 | 0.00 | 0.00 | 0.00 | 69 | 1016.6 |
| 20260506195034 | 32 | 77 | 14.5 | 27.4 | 0.00 | 0.00 | 0.00 | 69 | 1016.7 |
| 20260506194548 | 32 | 135 | 11.3 | 29.0 | 0.00 | 0.00 | 0.00 | 69 | 1016.8 |
| 20260506194034 | 32 | 104 | 14.5 | 30.6 | 0.00 | 0.00 | 0.00 | 70 | 1016.8 |
| 20260506193533 | 32 | 135 | 14.5 | 30.6 | 0.00 | 0.00 | 0.00 | 69 | 1016.9 |
| 20260506193043 | 32 | 105 | 14.5 | 25.7 | 0.00 | 0.00 | 0.00 | 70 | 1016.9 |
| 20260506192535 | 32 | 90 | 9.7 | 29.0 | 0.00 | 0.00 | 0.00 | 70 | 1017.0 |
| 20260506192035 | 32 | 120 | 14.5 | 29.0 | 0.00 | 0.00 | 0.00 | 68 | 1016.9 |
| 20260506191542 | 32 | 134 | 16.1 | 27.4 | 0.00 | 0.00 | 0.00 | 68 | 1017.0 |
| 20260506191034 | 32 | 134 | 9.7 | 24.1 | 0.00 | 0.00 | 0.00 | 68 | 1017.0 |
| 20260506190534 | 32 | 115 | 14.5 | 30.6 | 0.00 | 0.00 | 0.00 | 68 | 1017.0 |
| 20260506190046 | 32 | 136 | 14.5 | 30.6 | 0.00 | 0.00 | 0.00 | 67 | 1017.0 |
| 20260506185534 | 32 | 105 | 14.5 | 25.7 | 0.00 | 0.00 | 0.00 | 68 | 1017.0 |
| 20260506185034 | 32 | 132 | 12.9 | 27.4 | 0.00 | 0.00 | 0.00 | 69 | 1016.9 |
| 20260506184544 | 32 | 155 | 12.9 | 29.0 | 0.00 | 0.00 | 0.00 | 69 | 1017.1 |
| 20260506184035 | 32 | 142 | 16.1 | 29.0 | 0.00 | 0.00 | 0.00 | 68 | 1017.1 |
| 20260506183535 | 32 | 128 | 16.1 | 27.4 | 0.00 | 0.00 | 0.00 | 70 | 1017.2 |
| 20260506183042 | 32 | 134 | 11.3 | 29.0 | 0.00 | 0.00 | 0.00 | 70 | 1017.1 |
| 20260506182533 | 32 | 132 | 11.3 | 29.0 | 0.00 | 0.00 | 0.00 | 72 | 1017.2 |
| 20260506182033 | 32 | 163 | 12.9 | 29.0 | 0.00 | 0.00 | 0.00 | 70 | 1017.2 |
| 20260506181540 | 32 | 116 | 17.7 | 29.0 | 0.00 | 0.00 | 0.00 | 71 | 1017.3 |
| 20260506181036 | 32 | 108 | 11.3 | 27.4 | 0.00 | 0.00 | 0.00 | 72 | 1017.5 |
| 20260506180535 | 32 | 115 | 14.5 | 30.6 | 0.00 | 0.00 | 0.00 | 71 | 1017.6 |
| 20260506180049 | 32 | 140 | 16.1 | 30.6 | 0.00 | 0.00 | 0.00 | 70 | 1017.6 |
| 20260506175533 | 32 | 155 | 14.5 | 27.4 | 0.00 | 0.00 | 0.00 | 71 | 1017.7 |
| 20260506175035 | 32 | 114 | 12.9 | 27.4 | 0.00 | 0.00 | 0.00 | 72 | 1017.8 |
| 20260506174547 | 32 | 119 | 16.1 | 29.0 | 0.00 | 0.00 | 0.00 | 71 | 1017.9 |
| 20260506174034 | 32 | 86 | 14.5 | 29.0 | 0.00 | 0.00 | 0.00 | 71 | 1017.9 |
| 20260506173534 | 32 | 111 | 11.3 | 27.4 | 0.00 | 0.00 | 0.00 | 71 | 1018.1 |
| 20260506173053 | 32 | 136 | 12.9 | 27.4 | 0.00 | 0.00 | 0.00 | 71 | 1018.1 |
| 20260506172534 | 32 | 103 | 11.3 | 27.4 | 0.00 | 0.00 | 0.00 | 70 | 1018.2 |
| 20260506172034 | 31 | 128 | 12.9 | 30.6 | 0.00 | 0.00 | 0.00 | 69 | 1018.4 |
| 20260506171551 | 32 | 138 | 16.1 | 30.6 | 0.00 | 0.00 | 0.00 | 69 | 1018.4 |
| 20260506171034 | 32 | 155 | 14.5 | 27.4 | 0.00 | 0.00 | 0.00 | 69 | 1018.5 |
| 20260506170533 | 32 | 141 | 9.7 | 25.7 | 0.00 | 0.00 | 0.00 | 71 | 1018.7 |
| 20260506170044 | 32 | 134 | 17.7 | 25.7 | 0.00 | 0.00 | 0.00 | 70 | 1018.8 |
| 20260506165534 | 32 | 196 | 9.7 | 24.1 | 0.00 | 0.00 | 0.00 | 70 | 1018.8 |
| 20260506165034 | 32 | 119 | 11.3 | 27.4 | 0.00 | 0.00 | 0.00 | 71 | 1018.9 |
| 20260506164553 | 31 | 135 | 9.7 | 27.4 | 0.00 | 0.00 | 0.00 | 71 | 1018.9 |
| 20260506164033 | 31 | 127 | 9.7 | 22.5 | 0.00 | 0.00 | 0.00 | 71 | 1018.9 |
| 20260506163533 | 31 | 112 | 11.3 | 25.7 | 0.00 | 0.00 | 0.00 | 71 | 1019.1 |
| 20260506163044 | 31 | 111 | 12.9 | 25.7 | 0.00 | 0.00 | 0.00 | 71 | 1019.1 |
| 20260506162534 | 31 | 135 | 16.1 | 29.0 | 0.00 | 0.00 | 0.00 | 71 | 1019.1 |
| 20260506162034 | 31 | 162 | 9.7 | 29.0 | 0.00 | 0.00 | 0.00 | 71 | 1019.2 |